sat.trackr.live / text

‹ back to catalog

STARLINK-2683

NORAD 48462 · 2021-040AL

PAYLOAD ACTIVE UNKNOWN

§ Identity

Operator
Country
US
Launch date
2021-05-09
Launch site
AFETR
Launch vehicle
Mass (kg)
RCS (m²)

Purposes: comms

External: N2YO · Heavens-Above · Gunter

§ Orbital elements

Epoch: 2026-09-19T21:59:30.378048Z

Period
94.01 min
Inclination
53.1595°
Eccentricity
0.0001178
Mean motion
15.31713507 rev/d
Perigee alt
469.9 km
Apogee alt
471.5 km
Semi-major
6,848.8 km
B*
4.4042e-4
RAAN
7.1759°
Arg perigee
70.6724°
Mean anomaly
289.4405°
Rev number
29,626

§ Raw data

STARLINK-26831 48462U 21040AL  26262.91632382  .00013332  00000+0  44042-3 0  99912 48462  53.1595   7.1759 0001178  70.6724 289.4405 15.31713507296266

JSON: /api/v1/satellites/48462 · /tle

For live sub-satellite position, see the globe view (requires WebGL).

§ Visibility from observer

Set your observer location to see the next 7 days of passes ≥ 10°. The values pass through the URL so the page stays shareable.

No JS? Fill the form by hand. The geolocation button needs JavaScript.